Location: DARK SKY Beskydy - Park tmavé oblohy, www.darkskybeskydy.cz
(49.4926°N, 18.5016°E)
Time: 16:11:52
(UTC+02:00)

Explorer 7 - Pass Details

Date: 23 July 2024
Orbit: 444 x 569 km, 50.3° (Epoch: 18 July)

Event Time Altitude Azimuth Distance (km) Brightness Sun altitude
Exits shadow 03:09:51 - 273° (W) 2,542 9.9 -14.1°
Reaches altitude 10° 03:11:20 10° 274° (W) 1,964 9.3 -14.0°
Maximum altitude 03:15:52 80° 1° (N) 618 7.1 -13.6°
Drops below altitude 10° 03:20:17 10° 89° (E) 1,916 10.1 -13.2°
Sets 03:22:32 0° 91° (E) 2,795 10.9 -13.0°
